Flag for Denmark Weather past 2 weeks in Copenhagen, Denmark

Now
37 °F

Clear.


Feels Like: 27 °F
Forecast: 36 / 41 °F
Wind: 20 mph from South

Location: Koebenhavn-Kastrup Airport

Current Time: Mar 1, 2015 at 2:09:13 AM

Latest Report: Mar 1, 2015 at 1:20 AM


Visibility: 10 mi

Pressure: 29.74 "Hg

Humidity: 81%

Dew point: 32 °F

Location of CopenhagenLocation

Historic Weather in Copenhagen — Graph

°F

Copenhagen temperature yesterday

Maximum temperature yesterday: 41 °F (at 11:20 AM)
Minimum temperature yesterday: 34 °F (at 7:20 AM)
Average temperature yesterday: 37 °F

Past Weeks' High & Low Weather Summary

 TemperatureHumidityPressure
High43 °F (Feb 18, 11:50 AM)100% (Feb 14, 12:20 AM)30.54 "Hg (Feb 14, 12:20 AM)
Low30 °F (Feb 26, 2:50 AM)66% (Feb 27, 12:20 PM)29.18 "Hg (Feb 21, 2:50 PM)
Average37 °F87%29.94 "Hg
* Reported Feb 14 12:20 AM — Mar 1 12:50 AM, Copenhagen, Weather by CustomWeather, © 2015

Note: Actual official high and low records may vary slightly from our data, if they occured in-between our weather recording intervals... More about our weather records

Advertising

Copenhagen weather history for previous 24 hours

 ConditionsComfort  
Time TempWeatherWind HumidityBarometerVisibility
12:50 AM
Sun, Mar 1
37 °FClear.18 mph81%29.77 "Hg10 mi
12:20 AM37 °FClear.17 mph81%29.77 "Hg10 mi
11:50 PM
Sat, Feb 28
37 °FClear.17 mph81%29.80 "Hg10 mi
11:20 PM37 °FClear.15 mph81%29.83 "Hg10 mi
10:50 PM37 °FClear.17 mph81%29.83 "Hg10 mi
10:20 PM37 °FClear.16 mph81%29.86 "Hg10 mi
9:50 PM37 °FClear.17 mph81%29.89 "Hg10 mi
9:20 PM37 °FClear.16 mph87%29.89 "Hg10 mi
8:50 PM37 °FClear.16 mph81%29.89 "Hg10 mi
8:20 PM37 °FClear.15 mph81%29.92 "Hg10 mi
7:50 PM37 °FClear.14 mph81%29.92 "Hg10 mi
7:20 PM37 °FPassing clouds.14 mph87%29.92 "HgN/A
6:50 PM37 °FPassing clouds.15 mph81%29.92 "HgN/A
6:20 PM37 °FPassing clouds.13 mph87%29.95 "HgN/A
5:50 PM37 °FPassing clouds.14 mph87%29.95 "HgN/A
5:20 PM39 °FBroken clouds.10 mph81%29.95 "HgN/A
4:50 PM39 °FPartly sunny.9 mph75%29.95 "HgN/A
4:20 PM39 °FPartly sunny.10 mph75%29.95 "HgN/A
3:50 PM41 °FPartly sunny.10 mph66%29.95 "HgN/A
3:20 PM41 °FScattered clouds.13 mph66%29.98 "HgN/A
2:50 PM41 °FScattered clouds.13 mph66%29.98 "HgN/A
1:50 PM41 °FPartly sunny.14 mph66%29.98 "HgN/A
1:20 PM41 °FPartly sunny.12 mph66%30.01 "HgN/A
12:50 PM41 °FPartly sunny.13 mph70%30.01 "HgN/A
12:20 PM41 °FPartly sunny.12 mph70%30.01 "HgN/A
11:50 AM41 °FPartly sunny.10 mph76%30.01 "HgN/A
11:20 AM41 °FPartly sunny.12 mph76%30.01 "HgN/A
10:50 AM39 °FPartly sunny.7 mph81%30.01 "HgN/A
10:20 AM36 °FScattered clouds.5 mph100%30.01 "Hg6 mi
10:02 AM36 °FPartly sunny.5 mph93%30.01 "Hg4 mi
9:20 AM34 °FFog.2 mph100%30.01 "Hg1 mi
8:50 AM34 °FFog.6 mph100%30.01 "Hg1 mi
8:20 AM34 °FFog.5 mph100%30.01 "Hg1 mi
7:50 AM34 °FFog.5 mph100%30.01 "Hg1 mi
7:33 AM34 °FFog.3 mph100%29.98 "Hg1 mi
7:20 AM34 °FFog.5 mph100%29.98 "Hg1 mi
6:50 AM36 °FFog.9 mph93%29.98 "Hg1 mi
6:20 AM36 °FFog.8 mph93%29.98 "Hg2 mi
5:50 AM36 °FFog.8 mph100%29.98 "Hg2 mi
5:20 AM36 °FFog.7 mph100%29.98 "Hg2 mi
4:20 AM36 °FFog.5 mph93%29.98 "Hg1 mi
3:50 AM36 °FFog.6 mph93%29.98 "Hg1 mi
3:20 AM36 °FFog.5 mph100%29.98 "Hg1 mi
2:50 AM36 °FFog.3 mph100%29.98 "Hg1 mi
2:20 AM37 °FFog.3 mph93%29.98 "Hg1 mi
Weather by CustomWeather, © 2015

See weather overviewHow to use our weather pages